Regional Weather Roundup
Issued by NWS

Home | Current Version | Previous Version | Text Only | Print | Product List | Glossary Off
Versions: 1 2 3 4 5 6 7 8 9 10 11 12 13 14 15 16 17 18 19 20 21 22 23 24 25 26 27 28 29 30 31 32 33 34 35 36 37 38 39 40 41 42 43 44 45 46 47 48 49 50

000
ASUS43 KIND 230700
RWRIN

WEATHER ROUNDUP FOR INDIANA
NATIONAL WEATHER SERVICE INDIANAPOLIS IN
300 AM EDT SUN JUL 23 2017

NOTE: "FAIR" INDICATES FEW OR NO CLOUDS BELOW 12,000 FEET WITH NO
SIGNIFICANT WEATHER AND/OR OBSTRUCTIONS TO VISIBILITY.

* - STATION DOES NOT REPORT WEATHER SUCH AS PRECIPITATION OR FOG.

+ - STATION NOT QUALITY CONTROLLED BY THE NATIONAL WEATHER SERVICE.
    USE DATA WITH CAUTION...ESPECIALLY DEWPOINT AND RELATIVE
    HUMIDITY OBSERVATIONS.

INZ001>003-010>013-019-020-230800-
NORTHWEST INDIANA

CITY           SKY/WX    TMP DP  RH WIND       PRES   REMARKS
MICHIGAN CITY+ CLOUDY    68  68 100 CALM      29.80F
MONTICELLO +   CLOUDY    75  73  95 CALM      29.79F
RENSSELAER +   CLOUDY    73  72  94 CALM      29.79F

$$

LMZ046-743>745-230800-
SOUTHERN LAKE MICHIGAN

STATION/POSITION TIME  TEMP    WIND        PRES    WAVE
                       AIR SEA DIR/SP/G            HT
                 (UTC) (F)     (DEG/KT/KT) (MB)    (FT)
BURNS HARBOR     0640   74     200/  2/  4 1009.8S
MICHIGAN CITY    0630   73     150/  4/  4   N/A
5NW MICH CITY    0650   73 75  180/  6/  6   N/A     0

$$

INZ004-005-014>016-021>024-230800-
NORTH CENTRAL INDIANA

CITY           SKY/WX    TMP DP  RH WIND       PRES   REMARKS
GOSHEN         PTCLDY    68  65  90 CALM      29.80F FOG
SOUTH BEND     MOCLDY    68  68 100 CALM      29.81S

$$

INZ006>009-017-018-025>027-230800-
NORTHEAST INDIANA

CITY           SKY/WX    TMP DP  RH WIND       PRES   REMARKS
FORT WAYNE     PTCLDY    70  68  93 CALM      29.81R
KENDALLVILLE + FOG       66  66 100 CALM      29.81F VSB 1/4

$$

INZ028-029-035-036-043>045-051>053-230800-
WEST CENTRAL INDIANA

CITY           SKY/WX    TMP DP  RH WIND       PRES   REMARKS
LAFAYETTE      CLOUDY    75  75 100 N3        29.77F
TERRE HAUTE    CLOUDY    73  69  87 S6        29.77F

$$

INZ030>032-037>040-046>048-054>057-064-065-230800-
CENTRAL INDIANA

CITY           SKY/WX    TMP DP  RH WIND       PRES   REMARKS
GREENWOOD *+   CLOUDY   N/A N/A N/A SW7       29.81F
INDIANAPOLIS   CLOUDY    75  71  87 SW8       29.77F
-EAGLE CREEK   CLOUDY    76  72  87 SW3       29.78F
KOKOMO +       CLOUDY    74  73  97 CALM      29.80F
MT COMFORT *+  CLOUDY    73  73 100 W6        29.82F
SHELBYVILLE    CLOUDY    77  71  82 SW8       29.79F

$$

INZ033-034-041-042-049-050-058-059-230800-
EAST CENTRAL INDIANA

CITY           SKY/WX    TMP DP  RH WIND       PRES   REMARKS
MUNCIE         CLOUDY    77  72  84 SW3       29.81F
RICHMOND +     CLOUDY    72  72 100 W3        29.83F

$$

INZ060-061-067>069-081>083-085>088-230800-
SOUTHWEST INDIANA

CITY           SKY/WX    TMP DP  RH WIND       PRES   REMARKS
EVANSVILLE     PTCLDY    83  74  74 SW14      29.80F
HUNTINGBURG *+ CLOUDY    81  72  74 N8        29.85R THUNDER

$$

INZ062-063-066-070>080-084-089>092-230800-
SOUTH CENTRAL AND SOUTHEAST INDIANA

CITY           SKY/WX    TMP DP  RH WIND       PRES   REMARKS
BLOOMINGTON    CLOUDY    72  67  84 S3        29.81F HAZE
MADISON *+     CLOUDY    73  70  88 W7        29.85S
SEYMOUR +      TSTM      73  72  94 CALM      29.80F

$$




USA.gov is the U.S. government's official web portal to all federal, state and local government web resources and services.